[[{"header":{"parameterUnit":"m.s-1","parameterCategory":1,"la1":30.2991,"la2":30.254,"lo1":-89.0895,"lo2":-89.0444,"dy":0.0017,"dx":0.0017,"nx":28,"ny":28,"refTime":"2023-08-22T09:00:00:Z","depth":0,"parameterNumber":2,"parameterNumberName":"U-component_of_WINDS"},"data":[0,0,0,0,0,0,0,0,0,0,0,0,0,0,0,0,0,0,0,0,0,0,0,0,0,0,0,0,0,0,0,0,0,0,0,0,0,0,0,0,0,0,0,0,0,0,0,0,0,0,0,0,0,0,0,0,0,0,2.0039,2.004,0,2.0132,2.0133,2.0134,2.0151,2.015,2.0149,2.0149,2.0241,2.0244,2.0247,0,0,0,0,0,0,0,0,0,0,0,0,0,1.9873,1.9876,2.0039,2.004,2.0042,2.0132,2.0133,2.0134,2.0151,2.015,2.0149,2.0148,2.0239,2.0243,2.0247,0,0,0,0,0,0,0,0,0,0,0,0,0,1.9953,1.9877,2.0039,2.0061,2.0064,2.0132,2.0133,2.0135,2.0151,2.015,2.0149,2.0148,2.0238,2.0243,2.0248,2.0299,0,0,2.0262,2.0264,0,0,0,0,0,0,0,0,1.9949,1.996,2.0056,2.0059,2.0063,2.0129,2.0108,2.019,2.0151,2.0118,2.0149,2.0147,2.0204,2.0212,2.0231,2.0304,2.0307,2.0262,2.0265,2.0267,2.0269,0,0,0,0,0,0,0,1.9943,1.9956,2.0076,2.0058,2.0062,2.0065,2.0075,2.0124,2.0166,2.0121,2.0122,2.0133,2.0206,2.0227,2.0234,2.0309,2.0262,2.0266,2.0269,2.0271,2.0427,2.0428,0,0,0,0,0,0,1.9934,1.9951,2.0073,2.0079,2.0002,2.0069,2.008,2.0109,2.0166,2.0173,2.0134,2.0134,2.0219,2.0228,2.0237,2.03,2.0267,2.0272,2.0274,2.0426,2.0427,2.0428,0,0,0,0,0,0,1.9931,1.9945,2.0069,2.0015,2.0031,2.0073,2.0105,2.0111,2.0132,2.0176,2.0183,2.0148,2.0219,2.023,2.0284,2.0303,2.0274,2.0278,2.0424,2.0426,2.0428,2.0427,0,0,0,0,0,0,1.9926,1.9944,1.9965,2.0016,2.0034,2.0115,2.0106,2.0114,2.0141,2.0141,2.0191,2.0198,2.0219,2.0276,2.0288,2.0309,2.0282,2.0422,2.0425,2.0427,2.0426,2.0429,2.0432,0,0,0,0,0,1.992,1.996,1.9966,1.998,2.0061,2.0116,2.0127,2.0151,2.0142,2.0163,2.0191,2.0196,2.03,2.0282,2.0295,2.0318,2.0421,2.0424,2.0427,2.0424,2.0428,2.0432,0,0,0,0,0,0,1.9909,1.9967,1.9974,2.0032,2.0069,2.0119,2.0146,2.0154,2.0194,2.0192,2.022,2.0231,2.0282,2.0306,2.0285,2.0371,2.036,2.0365,2.0353,2.0357,2.036,2.0353,2.0286,0,0,0,0,0,1.9914,1.9955,2.0003,2.005,2.0068,2.0104,2.0129,2.0144,2.0183,2.0199,2.023,2.0267,2.0308,2.0334,2.0374,2.043,2.044,2.0452,2.0455,2.0457,2.0461,2.0491,2.0497,2.0438,2.0438,2.0438,0,0,1.9924,1.996,1.9984,2.0049,2.0079,2.012,2.0117,2.016,2.019,2.0205,2.0257,2.0282,2.0325,2.0379,2.0404,2.04,2.048,2.0461,2.0463,2.0466,2.0495,2.05,2.0505,2.044,2.044,2.0439,0,0,1.9961,1.9994,2.0036,2.0067,2.0114,2.0137,2.0147,2.0196,2.0213,2.0266,2.0278,2.0314,2.0384,2.0413,2.0438,2.0487,2.0493,2.0499,2.0514,2.0543,2.0548,2.0552,2.0568,2.0573,2.0503,2.0503,2.0503,0,1.9967,2.003,2.0056,2.0099,2.0126,2.0143,2.0185,2.0213,2.027,2.0288,2.0283,2.0371,2.0401,2.0461,2.0473,2.0493,2.0504,2.0493,2.0545,2.055,2.0554,2.0569,2.0575,2.0504,2.0504,2.0504,2.0504,0,2.0034,2.0077,2.0105,2.016,2.0191,2.0233,2.0265,2.0292,2.0305,2.0329,2.0382,2.0419,2.0466,2.0482,2.0495,2.0544,2.054,2.054,2.0529,2.0559,2.0574,2.0581,2.0504,2.0504,2.0504,2.0504,0,0,2.0066,2.0136,2.0146,2.0171,2.0224,2.0257,2.0299,2.0347,2.0369,2.0408,2.0443,2.0502,2.0502,2.0529,2.0545,2.0571,2.0606,2.0567,2.0569,2.0572,2.0661,2.066,2.0666,2.0611,2.0612,2.0613,2.0657,0,2.0109,2.0186,2.0212,2.0275,2.0314,2.0331,2.0368,2.0403,2.0426,2.0462,2.0488,2.0528,2.0526,2.0543,2.0569,2.0596,2.0624,2.0593,2.0642,2.0643,2.0629,2.0674,2.0673,2.0713,2.0663,2.0664,2.0665,0,2.0169,2.021,2.0278,2.0325,2.0342,2.0375,2.042,2.0455,2.0495,2.051,2.0541,2.0555,2.0599,2.0587,2.0646,2.0625,2.0647,2.0663,2.0665,2.0669,2.0655,2.0678,2.0726,2.0732,2.0675,2.0674,2.0673,0,2.0184,2.0256,2.0305,2.0327,2.0383,2.0406,2.043,2.047,2.0496,2.0535,2.0552,2.0595,2.0619,2.0651,2.0676,2.0666,2.0733,2.0724,2.0746,2.0745,2.0758,2.0756,2.0808,2.0774,2.0774,2.0774,2.0774,0,2.0229,2.0269,2.0313,2.0343,2.0388,2.0417,2.046,2.0486,2.0521,2.0555,2.0572,2.0604,2.0636,2.0672,2.0692,2.0737,2.0748,2.076,2.0765,2.0758,2.0756,2.0771,2.0768,2.0776,2.0775,2.0775,2.0775,0,2.0253,2.0284,2.0339,2.0388,2.0402,2.0433,2.0474,2.0504,2.0528,2.0571,2.0583,2.062,2.0663,2.0692,2.0747,2.076,2.0809,2.0814,2.0796,2.0797,2.0817,2.0814,2.0879,2.0889,2.085,2.085,2.085,0,2.0278,2.031,2.0363,2.0388,2.0412,2.0452,2.0479,2.0508,2.0536,2.0584,2.0607,2.0651,2.0688,2.0756,2.0787,2.0829,2.0834,2.0854,2.084,2.0832,2.0832,2.0829,2.0832,2.0855,2.0855,2.0856,2.0856,0,2.0319,2.0333,2.0373,2.0417,2.0449,2.0486,2.0522,2.0541,2.0576,2.0606,2.065,2.0679,2.0735,2.0778,2.0823,2.0847,2.0857,2.086,2.0867,2.086,2.0847,2.0853,2.08,2.0858,2.0858,2.0858,2.0858,2.0858,2.0344,2.0372,2.0414,2.0457,2.0487,2.0521,2.055,2.0579,2.0617,2.0665,2.068,2.0725,2.0764,2.0826,2.085,2.0886,2.0884,2.0894,2.0897,2.0898,2.0898,2.0843,2.0894,2.0894,2.0894,2.0894,2.0894,0,2.0385,2.0413,2.0452,2.0502,2.0536,2.0544,2.0584,2.0611,2.0651,2.0688,2.0724,2.0774,2.0816,2.0851,2.0894,2.0916,2.0921,2.0926,2.0924,2.0929,2.0898,2.0887,2.092,2.092,2.092,2.092,2.092,2.092,2.041,2.0458,2.0477,2.0539,2.0567,2.0613,2.0635,2.0665,2.0694,2.075,2.0785,2.0808,2.0843,2.0889,2.0927,2.0937,2.0951,2.0954,2.0964,2.0934,2.0931,2.0928,2.0918,2.0957,2.0958,2.0992,2.0992,2.0992]},{"header":{"parameterUnit":"m.s-1","parameterCategory":1,"la1":30.2991,"la2":30.254,"lo1":-89.0895,"lo2":-89.0444,"dy":0.0017,"dx":0.0017,"nx":28,"ny":28,"refTime":"2023-08-22T09:00:00:Z","depth":0,"parameterNumber":3,"parameterNumberName":"V-component_of_WINDS"},"data":[0,0,0,0,0,0,0,0,0,0,0,0,0,0,0,0,0,0,0,0,0,0,0,0,0,0,0,0,0,0,0,0,0,0,0,0,0,0,0,0,0,0,0,0,0,0,0,0,0,0,0,0,0,0,0,0,0,0,2.4823,2.4823,0,2.4808,2.4808,2.4807,2.476,2.4759,2.4758,2.4757,2.4742,2.4743,2.4743,0,0,0,0,0,0,0,0,0,0,0,0,0,2.4811,2.4811,2.4823,2.4823,2.4822,2.4808,2.4808,2.4807,2.4761,2.4759,2.4758,2.4757,2.4742,2.4743,2.4743,0,0,0,0,0,0,0,0,0,0,0,0,0,2.4808,2.4811,2.4823,2.4797,2.4795,2.4808,2.4808,2.4807,2.4761,2.4759,2.4758,2.4756,2.4742,2.4743,2.4743,2.478,0,0,2.4746,2.4746,0,0,0,0,0,0,0,0,2.4808,2.4808,2.4801,2.4799,2.4796,2.4784,2.4798,2.4798,2.4761,2.4774,2.4757,2.4756,2.4757,2.4757,2.4758,2.4779,2.4778,2.4746,2.4747,2.4747,2.4747,0,0,0,0,0,0,0,2.4808,2.4809,2.4817,2.4801,2.4798,2.4786,2.4784,2.4797,2.4775,2.4773,2.4769,2.4768,2.4756,2.4757,2.4757,2.4778,2.4746,2.4747,2.4747,2.4748,2.4828,2.4829,0,0,0,0,0,0,2.4812,2.4809,2.4817,2.4816,2.4798,2.4788,2.4786,2.479,2.4774,2.477,2.4769,2.4766,2.4756,2.4756,2.4756,2.4797,2.4747,2.4748,2.4748,2.4826,2.4828,2.483,0,0,0,0,0,0,2.4812,2.4813,2.4818,2.4812,2.4811,2.479,2.4795,2.479,2.4791,2.4772,2.4768,2.4775,2.4755,2.4755,2.4774,2.4796,2.4748,2.4749,2.4824,2.4827,2.4829,2.4879,0,0,0,0,0,0,2.4812,2.4814,2.4827,2.4812,2.4812,2.4837,2.4796,2.4791,2.4793,2.4788,2.4776,2.4772,2.4754,2.4773,2.4775,2.4796,2.475,2.4822,2.4825,2.4828,2.4876,2.4883,2.489,0,0,0,0,0,2.4812,2.4843,2.4828,2.483,2.4829,2.4838,2.4838,2.4816,2.4795,2.4808,2.4796,2.4772,2.4793,2.4775,2.4777,2.4799,2.4821,2.4824,2.4828,2.4873,2.4882,2.489,0,0,0,0,0,0,2.4861,2.484,2.4824,2.4851,2.4847,2.483,2.4846,2.4826,2.4828,2.4823,2.4796,2.4794,2.4816,2.4809,2.479,2.4833,2.4803,2.4807,2.4836,2.4845,2.4852,2.4853,2.475,0,0,0,0,0,2.4875,2.4884,2.4865,2.4891,2.4889,2.4869,2.4872,2.4855,2.4849,2.4847,2.4836,2.4831,2.4836,2.484,2.4844,2.4874,2.4871,2.489,2.4897,2.4903,2.4907,2.4922,2.493,2.4842,2.4842,2.4842,0,0,2.4904,2.4894,2.4901,2.4901,2.4895,2.4905,2.4867,2.4879,2.4886,2.4849,2.4866,2.4857,2.485,2.4875,2.4885,2.487,2.493,2.4908,2.4913,2.4913,2.4926,2.4934,2.4942,2.4844,2.4844,2.4843,0,0,2.4962,2.4956,2.4976,2.4971,2.4962,2.4948,2.4953,2.4939,2.4932,2.4949,2.492,2.4928,2.4938,2.4934,2.4933,2.4988,2.4966,2.499,2.5026,2.5041,2.5048,2.5054,2.5073,2.508,2.4994,2.4994,2.4994,0,2.4999,2.5013,2.4989,2.5002,2.5002,2.4969,2.4989,2.4985,2.4979,2.4979,2.4962,2.4973,2.4966,2.4989,2.5002,2.5003,2.5007,2.4991,2.5049,2.5055,2.506,2.5078,2.5085,2.4997,2.4996,2.4996,2.4996,0,2.5059,2.5068,2.5086,2.508,2.5082,2.5099,2.5077,2.5082,2.5065,2.5052,2.5069,2.5059,2.506,2.5064,2.5048,2.5084,2.5075,2.5054,2.5023,2.5072,2.5088,2.5094,2.5001,2.5,2.4999,2.4998,0,0,2.5148,2.5128,2.5134,2.5131,2.5119,2.5126,2.5141,2.5141,2.5145,2.5142,2.5153,2.5162,2.5142,2.5141,2.5124,2.5137,2.518,2.5114,2.5113,2.5126,2.5219,2.5234,2.5243,2.5166,2.5167,2.5168,2.5219,0,2.5202,2.5226,2.5204,2.5232,2.5241,2.5208,2.5221,2.5215,2.5203,2.5208,2.5195,2.5202,2.5175,2.5174,2.5186,2.5173,2.5198,2.5169,2.5176,2.5176,2.5178,2.5251,2.5268,2.5317,2.5225,2.5226,2.5227,0,2.5269,2.5268,2.5297,2.5282,2.5284,2.5296,2.5294,2.53,2.5292,2.5282,2.5281,2.526,2.5273,2.5243,2.526,2.5241,2.5242,2.5236,2.5237,2.5237,2.5204,2.5252,2.5332,2.5339,2.5237,2.5236,2.5235,0,2.533,2.5336,2.5353,2.5352,2.5335,2.5344,2.5337,2.5328,2.5329,2.5327,2.5328,2.5328,2.5328,2.5328,2.5308,2.5288,2.5327,2.5296,2.5319,2.532,2.5329,2.5329,2.5409,2.5331,2.5331,2.5331,2.533,0,2.5392,2.5411,2.538,2.5392,2.5411,2.5386,2.5406,2.5396,2.5388,2.5396,2.5368,2.5377,2.5349,2.5354,2.5338,2.5354,2.5355,2.5347,2.5343,2.5349,2.535,2.535,2.5346,2.5333,2.5332,2.5332,2.5331,0,2.5464,2.5444,2.5461,2.5444,2.544,2.5455,2.544,2.5449,2.5436,2.5446,2.5447,2.5426,2.543,2.541,2.5411,2.54,2.5424,2.5414,2.5427,2.5424,2.5448,2.5446,2.5531,2.554,2.5456,2.5457,2.5458,0,2.5505,2.5519,2.5502,2.5506,2.55,2.5506,2.5507,2.5482,2.5485,2.5476,2.5486,2.5488,2.5489,2.5497,2.5482,2.5482,2.5472,2.5502,2.5472,2.5478,2.5471,2.5471,2.5472,2.5508,2.5509,2.551,2.551,0,2.558,2.5569,2.5571,2.557,2.5572,2.557,2.5566,2.557,2.5543,2.5547,2.5551,2.5552,2.5552,2.5555,2.5552,2.5545,2.5523,2.552,2.5525,2.5532,2.5539,2.5535,2.5443,2.5518,2.5517,2.5517,2.5516,2.5516,2.5637,2.5647,2.5637,2.564,2.5634,2.5631,2.5639,2.5625,2.5628,2.5627,2.5612,2.5619,2.561,2.5603,2.5598,2.5603,2.5589,2.5597,2.5599,2.5601,2.5605,2.5538,2.5603,2.5602,2.5602,2.5602,2.5602,0,2.571,2.5701,2.5705,2.5699,2.5702,2.5681,2.5675,2.5679,2.5685,2.5678,2.5679,2.5683,2.5685,2.5669,2.5669,2.5676,2.5666,2.5676,2.5675,2.5674,2.5618,2.5613,2.5684,2.5684,2.5684,2.5684,2.5684,2.5684,2.5748,2.5763,2.5751,2.5764,2.5755,2.5761,2.576,2.5756,2.5751,2.5757,2.5758,2.5747,2.5737,2.5735,2.5736,2.5731,2.5732,2.5746,2.5738,2.5686,2.5678,2.567,2.5666,2.5747,2.5747,2.5794,2.5794,2.5795]}]]